Weather History for KFLD - April, 2014

Change the Weather History Date:

Wednesday, April 30, 2014

  Actual Average Record
Temperature  
Mean Temperature 49 °F -  
Max Temperature 55 °F 60 °F 84 °F (2013)
Min Temperature 43 °F 42 °F 22 °F (1956)
Degree Days  
Heating Degree Days 16    
Moisture  
Dew Point 42 °F    
Average Humidity 79    
Maximum Humidity 93    
Minimum Humidity 66    
Precipitation  
Precipitation 0.00 in - - ()
Sea Level Pressure  
Sea Level Pressure 29.69 in    
Wind  
Wind Speed 10 mph (South)    
Max Wind Speed 20 mph    
Max Gust Speed 26 mph    
Visibility 10 miles    
Events      
Averages and records for this station are not official NWS values.
T = Trace of Precipitation, MM = Missing Value Source: NWS Daily Summary

Daily Weather History Graph

Daily Weather History Graph

Search for Another Location

Airport or City:

Trip Planner

Search our weather history database for the weather conditions in past years. The results will help you decide how hot, cold, wet, or windy it might be!

Date:

Astronomy

Apr. 30, 2014 Rise Set
Actual Time 5:47 AM CDT 7:55 PM CDT
Civil Twilight 5:16 AM CDT 8:27 PM CDT
Nautical Twilight 4:37 AM CDT 9:05 PM CDT
Astronomical Twilight 3:54 AM CDT 9:48 PM CDT
Moon 6:47 AM CDT (4/30) 9:35 PM CDT (4/30)
Length of Visible Light 15h 10m
Length of Day
14h 08m
New Moon, 2% of the Moon is Illuminated
Apr 30
New Moon
May 6
First Quarter
May 14
Full
May 21
Last Quarter
May 28
New

Hourly Weather History & Observations

Time (CDT) Temp. Windchill Dew Point Humidity Pressure Visibility Wind Dir Wind Speed Gust Speed Precip Events Conditions
12:25 AM 46.9 °F - 45.0 °F 93% 29.63 in 6.0 mi SE 6.9 mph - 0.00 in   Overcast
12:53 AM 46.9 °F - 45.0 °F 93% 29.65 in 6.0 mi SSE 6.9 mph - 0.00 in   Overcast
1:53 AM 48.0 °F - 44.1 °F 86% 29.64 in 10.0 mi South 10.4 mph - N/A   Overcast
2:53 AM 46.9 °F - 44.1 °F 90% 29.65 in 10.0 mi SSE 10.4 mph - N/A   Overcast
3:53 AM 46.9 °F - 44.1 °F 90% 29.65 in 10.0 mi SSE 5.8 mph - N/A   Overcast
4:53 AM 46.0 °F 42.5 °F 43.0 °F 89% 29.65 in 10.0 mi SSE 6.9 mph - N/A   Overcast
6:53 AM 46.9 °F - 43.0 °F 86% 29.67 in 10.0 mi South 6.9 mph - N/A   Mostly Cloudy
7:29 AM 48.0 °F - 44.1 °F 86% 29.66 in 10.0 mi South 8.1 mph - N/A   Overcast
7:53 AM 48.9 °F - 45.0 °F 86% 29.67 in 10.0 mi South 10.4 mph - N/A   Overcast
8:07 AM 48.9 °F - 45.0 °F 86% 29.66 in 10.0 mi South 10.4 mph - N/A   Overcast
8:53 AM 50.0 °F - 45.0 °F 83% 29.67 in 10.0 mi South 13.8 mph - N/A   Overcast
10:53 AM 51.1 °F - 46.0 °F 83% 29.69 in 10.0 mi South 10.4 mph - N/A   Overcast
11:30 AM 52.0 °F - 46.0 °F 80% 29.68 in 10.0 mi South 10.4 mph - N/A   Overcast
11:53 AM 53.1 °F - 46.0 °F 77% 29.69 in 10.0 mi South 11.5 mph - N/A   Overcast
12:53 PM 54.0 °F - 45.0 °F 72% 29.69 in 10.0 mi South 13.8 mph - N/A   Overcast
1:25 PM 55.0 °F - 45.0 °F 69% 29.68 in 10.0 mi SSW 13.8 mph - N/A   Overcast
1:38 PM 55.0 °F - 45.0 °F 69% 29.68 in 10.0 mi South 12.7 mph - N/A   Overcast
1:53 PM 54.0 °F - 44.1 °F 69% 29.69 in 10.0 mi SSW 12.7 mph - N/A   Overcast
3:53 PM 51.1 °F - 43.0 °F 74% 29.71 in 10.0 mi SSW 19.6 mph 26.5 mph N/A   Overcast
4:07 PM 50.0 °F - 42.1 °F 74% 29.70 in 10.0 mi SW 13.8 mph - N/A   Overcast
4:38 PM 48.0 °F - 39.9 °F 74% 29.71 in 10.0 mi SSW 18.4 mph - N/A   Overcast
4:53 PM 46.9 °F - 39.0 °F 74% 29.73 in 10.0 mi SSW 13.8 mph - N/A   Overcast
5:53 PM 48.0 °F - 37.0 °F 66% 29.73 in 10.0 mi SSW 16.1 mph - N/A   Mostly Cloudy
6:53 PM 46.0 °F 40.2 °F 36.0 °F 68% 29.73 in 10.0 mi SSW 12.7 mph - N/A   Overcast
7:20 PM 45.0 °F 39.3 °F 36.0 °F 71% 29.72 in 10.0 mi SSW 11.5 mph - N/A   Overcast
7:43 PM 45.0 °F 39.3 °F 36.0 °F 71% 29.72 in 10.0 mi SW 11.5 mph 20.7 mph N/A   Overcast
7:53 PM 45.0 °F 39.7 °F 36.0 °F 71% 29.73 in 10.0 mi SW 10.4 mph - N/A   Overcast
8:53 PM 44.1 °F 39.5 °F 37.0 °F 76% 29.74 in 10.0 mi South 8.1 mph - N/A   Overcast
9:15 PM 44.1 °F 38.6 °F 36.0 °F 73% 29.72 in 10.0 mi SSW 10.4 mph - N/A   Overcast
9:53 PM 43.0 °F 38.2 °F 37.0 °F 80% 29.74 in 10.0 mi SSW 8.1 mph - N/A   Overcast
10:53 PM 43.0 °F 37.2 °F 37.0 °F 80% 29.73 in 10.0 mi South 10.4 mph - N/A   Overcast
11:53 PM 43.0 °F 37.7 °F 37.0 °F 80% 29.71 in 10.0 mi South 9.2 mph - N/A   Overcast